This is the latest recevied weather packets stored in our database for station/object F1AGU-13. If no packets are shown the sender has not sent any weather packets the latest 10 day(s).
| Time | Temp. | Humidity | Pressure | Rain* | Wind** | Luminosity | Snow |
|---|---|---|---|---|---|---|---|
| 1787617216 | 15° C | 96% | 1014.7 hPa | 2.79 mm | - | - | - |
| 1787616616 | 15° C | 96% | 1014.9 hPa | 2.54 mm | - | - | - |
| 1787616016 | 15° C | 95% | 1014.6 hPa | 2.29 mm | - | - | - |
| 1787615416 | 15.56° C | 95% | 1014.6 hPa | 1.78 mm | - | - | - |
| 1787614816 | 15.56° C | 95% | 1014.7 hPa | 1.52 mm | - | - | - |
| 1787614216 | 15.56° C | 95% | 1014.5 hPa | 0.76 mm | - | - | - |
| 1787613616 | 15.56° C | 95% | 1014.5 hPa | 0.51 mm | - | - | - |
| 1787613016 | 15.56° C | 95% | 1014.5 hPa | 0.51 mm | - | - | - |
| 1787612416 | 15.56° C | 95% | 1014.1 hPa | 0.76 mm | - | - | - |
| 1787611816 | 15.56° C | 94% | 1014.1 hPa | 1.52 mm | - | - | - |
| 1787611216 | 15.56° C | 94% | 1013.9 hPa | 2.29 mm | - | - | - |
| 1787610616 | 15.56° C | 94% | 1013.7 hPa | 3.3 mm | - | - | - |
| 1787610016 | 15.56° C | 93% | 1014.1 hPa | 4.32 mm | - | - | - |
| 1787609416 | 15.56° C | 93% | 1014.3 hPa | 5.84 mm | - | - | - |
| 1787608816 | 15.56° C | 92% | 1014.4 hPa | 6.6 mm | - | - | - |
| 1787608217 | 16.11° C | 92% | 1014.5 hPa | 6.86 mm | - | - | - |
| 1787607617 | 16.11° C | 92% | 1014.7 hPa | 6.1 mm | - | - | - |
| 1787607016 | 16.11° C | 90% | 1014.5 hPa | 5.08 mm | - | - | - |
| 1787606416 | 16.11° C | 90% | 1014.6 hPa | 3.81 mm | - | - | - |
| 1787605816 | 16.67° C | 89% | 1014.9 hPa | 2.03 mm | - | - | - |
| 1787605220 | 17.22° C | 87% | 1015 hPa | 0.76 mm | - | - | - |
| 1787604616 | 17.78° C | 83% | 1014.5 hPa | 0 mm | - | - | - |
| 1787604016 | 18.33° C | 80% | 1014.5 hPa | 0 mm | - | - | - |
| 1787603417 | 18.89° C | 77% | 1013.6 hPa | 0 mm | - | - | - |
| 1787602816 | 19.44° C | 74% | 1013.7 hPa | 0 mm | - | - | - |
* Rain latest hour (hover to see other rain measurements)
** Current wind speed in m/s (hover to see current wind gust speed)